Location: Wildlife_Club
(35.6000°N, 81.4330°W)
Time: 11:10:28
(UTC-04:00)

SR - Visible Passes

Search period start: 16 June 2019 00:00
Search period end: 26 June 2019 00:00
Orbit: 582 x 874 km, 66.7° (Epoch: 15 June)

Date Brightness Start Highest point End Pass type
(mag) Time Alt. Az. Time Alt. Az. Time Alt. Az.
17 Jun ? 04:50:33 10° SSE 04:53:15 17° ESE 04:55:57 10° ENE visible
19 Jun ? 04:51:50 10° S 04:55:45 37° ESE 04:59:41 10° NE visible
20 Jun ? 04:03:55 10° SE 04:06:25 15° ESE 04:08:53 10° ENE visible
21 Jun ? 04:55:19 18° SSW 04:58:23 88° ESE 05:02:39 10° NNE visible
22 Jun ? 04:07:15 25° SSE 04:08:54 34° ESE 04:12:45 10° NE visible
23 Jun ? 03:19:08 14° ESE 03:19:33 14° ESE 03:21:48 10° ENE visible
23 Jun ? 04:58:33 19° WSW 05:01:09 40° WNW 05:05:12 10° NNE visible
24 Jun ? 04:10:23 48° SSW 04:11:31 81° ESE 04:15:47 10° NNE visible
25 Jun ? 03:22:10 31° ESE 03:22:10 31° ESE 03:25:49 10° NE visible
25 Jun ? 05:01:35 13° W 05:04:05 20° NW 05:07:16 10° N visible
